Location: Clason Point
(40.8136°N, 73.8618°W)
Time: 05:42:31
(UTC+00:00)

H-2A R/B - Pass Details

Date: 16 September 2019
Orbit: 734 x 836 km, 98.3° (Epoch: 21 October)

Event Time Altitude Azimuth Distance (km) Brightness Sun altitude
Exits shadow 23:27:56 - 100° (E) 2,539 4.0 -5.5°
Reaches altitude 10° 23:29:15 10° 88° (E) 2,248 3.8 -5.7°
Maximum altitude 23:31:31 13° 60° (ENE) 2,038 3.8 -6.2°
Drops below altitude 10° 23:33:49 10° 33° (NNE) 2,271 4.2 -6.6°
Sets 23:37:19 0° 7° (N) 3,219 5.3 -7.3°
